Location: Chuathbaluk
(61.5726°N, 159.2454°W)
Time: 08:20:20
(UTC+00:00)

NUDT-PHONESAT - Pass Details

Date: 18 January 2021
Orbit: 479 x 498 km, 97.4° (Epoch: 08 March)

Event Time Altitude Azimuth Distance (km) Brightness Sun altitude
Rises 17:33:17 0° 17° (NNE) 2,611 ? -12.6°
Reaches altitude 10° 17:35:23 10° 20° (NNE) 1,724 ? -12.4°
Maximum altitude 17:39:05 67° 104° (ESE) 552 ? -11.9°
Drops below altitude 10° 17:42:45 10° 188° (S) 1,711 ? -11.5°
Sets 17:44:50 0° 191° (S) 2,590 ? -11.3°
